Regional Weather Roundup
Issued by NWS

Home | Current Version | Previous Version | Text Only | Print | Product List | Glossary Off
Versions: 1 2 3 4 5 6 7 8 9 10 11 12 13 14 15 16 17 18 19 20 21 22 23 24 25 26 27 28 29 30 31 32 33 34 35 36 37 38 39 40 41 42 43 44 45 46 47 48 49 50

000
ASUS43 KOAX 250302
RWRNE

WEATHER ROUNDUP FOR NEBRASKA
NATIONAL WEATHER SERVICE OMAHA NE
1000 PM CDT WED MAY 24 2017

NOTES: SATELLITE DATA IS BEING USED TO AUGMENT CLOUD COVER ABOVE
       12000 FEET.
       "FAIR" INDICATES FEW OR NO CLOUDS BELOW 12,000 FEET WITH NO
       SIGNIFICANT WEATHER AND/OR OBSTRUCTIONS TO VISIBILITY.

  * THESE STATIONS DO NOT REPORT WEATHER SUCH AS RAIN...SNOW OR FOG.

NEZ001>004-019>022-054>056-250400-
NEBRASKA PANHANDLE

CITY           SKY/WX    TMP DP  RH WIND       PRES   REMARKS
SCOTTSBLUFF    CLOUDY    66  47  50 NW7       29.43R
ALLIANCE       PTCLDY    65  45  48 SE17G28   29.44S
CHADRON        PTCLDY    74  45  35 S26G40    29.33F
SIDNEY         CLEAR     66  47  50 S7        29.51R
$$

NEZ057>060-069>072-079>082-250400-
SOUTHWEST NEBRASKA

CITY           SKY/WX    TMP DP  RH WIND       PRES   REMARKS
NORTH PLATTE   CLEAR     60  44  55 SE12      29.55S
IMPERIAL       CLEAR     61  45  55 SE16      29.52F
LEXINGTON      CLEAR     59  44  57 SE13      29.60S
MCCOOK         CLEAR     60  44  55 SE14      29.58S
$$

NEZ005>010-023>029-035>040-094-250400-
NORTH CENTRAL NEBRASKA

CITY           SKY/WX    TMP DP  RH WIND       PRES   REMARKS
VALENTINE      CLEAR     63  40  42 S20G26    29.47F
BROKEN BOW     CLEAR     57  43  59 SE10      29.58F
ORD            CLEAR     57  41  55 SE10      29.59F
$$

NEZ041-046>049-061>064-073>077-083>087-250400-
SOUTH CENTRAL NEBRASKA

CITY           SKY/WX    TMP DP  RH WIND       PRES   REMARKS
GRAND ISLAND   CLEAR     56  45  66 SE7       29.65S
HASTINGS       CLEAR     58  44  60 S7        29.65S
KEARNEY *      CLEAR     57  43  58 SE13      29.63F
$$

NEZ011>018-030>034-042>045-250400-
NORTHEAST NEBRASKA

CITY           SKY/WX    TMP DP  RH WIND       PRES   REMARKS
NORFOLK        CLEAR     53  43  68 S8        29.64S
ALBION         CLEAR     54  43  67 SE5       29.63S
BLAIR          CLEAR     59  46  62 SE3       29.68R
TEKAMAH        CLEAR     57  49  74 SE5       29.67R
$$

NEZ050>053-065>068-078-088>093-250400-
SOUTHEAST NEBRASKA

CITY           SKY/WX    TMP DP  RH WIND       PRES   REMARKS
LINCOLN        CLEAR     58  45  62 SE3       29.67S
OMAHA EPPLEY   CLEAR     58  45  62 SE5       29.68R
FALLS CITY     CLEAR     59  44  57 CALM      29.68R
$$

NEZ044-045-051>053-067-250400-
OMAHA AREA

CITY           SKY/WX    TMP DP  RH WIND       PRES   REMARKS
OMAHA EPPLEY   CLEAR     58  45  62 SE5       29.68R
BLAIR          CLEAR     59  46  62 SE3       29.68R
OFFUTT AFB     CLEAR     51  48  89 CALM      29.67R
WAHOO          FAIR      55  46  73 SE6       29.67S
$$




USA.gov is the U.S. government's official web portal to all federal, state and local government web resources and services.